CW3008 Weather Reports


Display with metric or nautical units.
time (UTC)temp
F
wind
direction
speed
MPH
gust
MPH
rain 1hr
in
rain 24hr
in
rain mn
in
humidity
%
barometer
mb
20260507234524 58 131 0.0 0.0 0.00 0.09 0.08 41 1004.6
20260507233024 58 131 0.0 0.0 0.00 0.09 0.08 40 1004.6
20260507231516 59 131 0.0 0.0 0.00 0.09 0.08 44 1004.3
20260507230014 60 131 0.0 0.0 0.00 0.09 0.08 40 1004.1
20260507224518 61 352 0.0 0.0 0.00 0.09 0.08 39 1004.1
20260507223014 61 339 0.0 0.0 0.00 0.09 0.08 37 1004.0
20260507221511 62 346 0.0 0.0 0.00 0.09 0.08 36 1003.8
20260507220009 62 340 0.0 0.0 0.00 0.09 0.08 35 1003.8
20260507214515 63 343 0.0 0.0 0.00 0.09 0.08 37 1003.6
20260507213008 63 293 0.0 0.0 0.00 0.09 0.08 33 1003.6
20260507211509 64 321 0.0 0.0 0.00 0.09 0.08 32 1003.5
20260507210038 64 7 0.0 0.0 0.00 0.09 0.08 34 1003.5
20260507204535 64 350 0.0 0.0 0.00 0.09 0.08 30 1003.6
20260507203007 65 340 0.0 0.0 0.00 0.09 0.08 30 1003.5
20260507201512 65 335 0.0 0.0 0.00 0.09 0.08 30 1003.4
20260507200003 65 346 0.0 0.0 0.00 0.09 0.08 33 1003.5
20260507194600 65 352 0.0 0.0 0.00 0.09 0.08 31 1003.6
20260507193101 66 343 0.0 0.0 0.00 0.09 0.08 32 1003.7
20260507191558 66 330 0.0 0.0 0.00 0.09 0.08 31 1003.9
20260507190053 66 358 0.0 0.0 0.00 0.09 0.08 32 1003.9
20260507184550 65 345 0.0 0.0 0.00 0.09 0.08 35 1004.0
20260507183047 61 280 0.0 0.0 0.00 0.09 0.08 51 1004.3
20260507181546 58 136 0.0 0.0 0.00 0.09 0.08 58 1004.5
20260507180014 58 142 0.0 0.0 0.00 0.09 0.08 59 1004.5
20260507174536 57 115 0.0 0.0 0.00 0.09 0.08 61 1004.5
20260507173043 57 144 0.0 0.0 0.00 0.09 0.08 62 1004.6
20260507171559 56 131 0.0 0.0 0.00 0.09 0.08 60 1004.8
20260507170040 57 112 0.0 0.0 0.00 0.09 0.08 60 1004.7
20260507164539 57 166 0.0 0.0 0.00 0.09 0.08 61 1005.0
20260507163038 56 131 0.0 0.0 0.00 0.09 0.08 60 1005.2
20260507161542 58 207 0.0 0.0 0.00 0.09 0.08 57 1005.4
20260507160008 59 279 0.0 0.0 0.00 0.09 0.08 55 1005.4
20260507154508 59 223 0.0 0.0 0.00 0.09 0.08 59 1005.6
20260507153036 59 152 0.0 0.0 0.00 0.09 0.08 57 1005.7
20260507151534 65 20 0.0 0.0 0.00 0.09 0.08 48 1005.8
20260507150036 64 40 0.0 0.0 0.00 0.09 0.08 50 1005.9
20260507144529 64 32 0.0 0.0 0.00 0.09 0.08 51 1006.0
20260507143027 63 40 0.0 0.0 0.00 0.09 0.08 52 1006.2
20260507141525 64 350 0.0 0.0 0.00 0.09 0.08 52 1006.2
20260507140034 63 346 0.0 0.0 0.00 0.09 0.08 55 1006.2
20260507134518 62 348 0.0 0.0 0.00 0.09 0.08 57 1006.3
20260507133012 61 348 0.0 0.0 0.00 0.09 0.08 65 1006.4
20260507131512 58 348 0.0 0.0 0.00 0.09 0.08 71 1006.7
20260507130004 55 348 0.0 0.0 0.00 0.09 0.08 79 1006.8
20260507124503 52 348 0.0 0.0 0.00 0.09 0.08 84 1006.7
20260507123106 50 358 0.0 0.0 0.00 0.09 0.08 85 1006.6
20260507123001 50 358 0.0 0.0 0.00 0.09 0.08 85 1006.7
20260507121601 49 131 0.0 0.0 0.00 0.09 0.08 87 1006.5
20260507120057 49 131 0.0 0.0 0.00 0.09 0.08 88 1006.6
20260507114556 49 131 0.0 0.0 0.00 0.09 0.08 88 1006.4
20260507113128 48 131 0.0 0.0 0.00 0.09 0.08 89 1006.4
20260507111555 48 131 0.0 0.0 0.01 0.09 0.08 90 1006.2
20260507110052 48 131 0.0 0.0 0.01 0.09 0.08 89 1006.4
20260507104600 48 131 0.0 0.0 0.02 0.09 0.08 89 1006.4
20260507103048 48 131 0.0 0.0 0.04 0.09 0.08 89 1006.2
20260507101553 48 131 0.0 0.0 0.05 0.08 0.07 88 1006.1
20260507100055 48 131 0.0 0.0 0.04 0.07 0.06 87 1005.9
20260507094543 49 131 0.0 0.0 0.04 0.07 0.06 86 1005.8
20260507093040 49 131 0.0 0.0 0.03 0.05 0.04 85 1005.8
20260507091542 50 131 0.0 0.0 0.01 0.03 0.02 85 1005.9
20260507090036 50 131 0.0 0.0 0.01 0.03 0.02 85 1005.8
20260507084545 50 131 0.0 0.0 0.02 0.03 0.02 85 1005.4
20260507083029 51 131 0.0 0.0 0.01 0.02 0.01 84 1005.0
20260507081526 51 131 0.0 0.0 0.01 0.02 0.01 84 1005.4
20260507080024 52 131 0.0 0.0 0.01 0.02 0.01 82 1005.3
20260507074519 52 131 0.0 0.0 0.00 0.01 0.00 83 1005.0
20260507073023 52 340 0.0 0.0 0.00 0.01 0.00 82 1004.9
20260507071518 52 327 0.0 0.0 0.00 0.01 0.00 83 1004.8
20260507070020 53 332 0.0 0.0 0.00 0.01 0.00 86 1004.9
20260507064547 53 350 0.0 0.0 0.00 0.01 0.00 88 1004.8
20260507063050 53 352 0.0 0.0 0.00 0.01 0.00 88 1004.4
20260507061513 53 352 0.0 0.0 0.00 0.01 0.00 89 1004.9
20260507060010 53 352 0.0 0.0 0.00 0.01 0.00 90 1004.8
20260507054506 54 131 0.0 0.0 0.00 0.01 0.00 91 1004.9
20260507053005 54 131 0.0 0.0 0.00 0.01 0.00 91 1004.5
20260507051607 56 131 0.0 0.0 0.00 0.01 0.00 92 1004.8
20260507050110 57 333 0.0 0.0 0.00 0.01 0.00 93 1004.6
20260507044557 57 320 0.0 0.0 0.00 0.01 0.00 93 1004.4
20260507043053 57 131 0.0 0.0 0.00 0.01 0.00 93 1004.5
20260507041552 57 131 0.0 0.0 0.00 0.01 0.00 93 1004.8
20260507040149 57 257 0.0 0.0 0.00 0.01 0.00 93 1004.7
20260507034547 56 131 0.0 0.0 0.00 0.01 0.01 93 1004.7
20260507033048 56 131 0.0 0.0 0.00 0.01 0.01 93 1004.3
20260507031545 56 131 0.0 0.0 0.00 0.01 0.01 93 1004.0
20260507030046 56 131 0.0 0.0 0.00 0.01 0.01 93 1004.1
20260507024545 56 131 0.0 0.0 0.00 0.01 0.01 92 1004.3
20260507023039 56 131 0.0 0.0 0.00 0.01 0.01 92 1004.3
20260507021550 56 131 0.0 0.0 0.00 0.01 0.01 92 1004.2
20260507020037 56 131 0.0 0.0 0.00 0.01 0.01 92 1004.4
20260507014534 56 131 0.0 0.0 0.00 0.01 0.01 92 1004.6
20260507013036 56 131 0.0 0.0 0.00 0.01 0.01 92 1004.7
20260507011537 56 131 0.0 0.0 0.00 0.01 0.01 92 1004.7
20260507010041 56 131 0.0 0.0 0.00 0.01 0.01 92 1004.7
20260507004530 56 131 0.0 0.0 0.00 0.01 0.01 92 1004.8
20260507003029 56 131 0.0 0.0 0.01 0.01 0.01 92 1004.6
20260507001533 56 131 0.0 0.0 0.01 0.01 0.01 92 1004.6
20260507000033 56 131 0.0 0.0 0.01 0.01 0.01 92 1004.7